Погода в Макурине

Россия / Кемеровская область (Кузбасс)     56°02′10″N   84°39′58″E
темп.,
°C
ветер,
м/с
пор.,
м/с
влажн.,
%
обл.,
%
осадки,
мм/ч
давл.,
гПа
погр.,
м
12 мая, ср
ср1201:00+12с5115486 0.0 1018354
04:00+8с48705 0.0 1017143
07:00+9с36726 0.0 1018148
10:00+16с45461 0.0 1017555
13:00+20ссв322926 0.0 10152938
16:00+21ссз222469 0.0 10142927
19:00+20сз333081 0.0 10141281
22:00+14с114177 0.0 101410
13 мая, чт
чт1301:00+13зсз11455 0.0 101412
04:00+10зюз115241 0.0 101310
07:00+12зюз11535 0.0 101358
10:00+17з113794 0.0 1013589
13:00+20юз352988 0.0 10122893
16:00+20зюз6529100 0.0 10112679
19:00+15сз7859100 0.0 1012865
22:00+12ссз367095 0.0 1014506
14 мая, пт
пт1401:00+10ссз367760 0.0 1014415
04:00+8зсз378997 0.0 1014183
07:00+8сз597777 0.1 1016523
10:00+8ссз687278 0.0 1018969
13:00+12ссз79335 0.0 10191713
16:00+13ссз692798 0.0 10191947
19:00+13сз5828100 0.0 10201808
22:00+9зсз343867 0.0 102257
15 мая, сб
сб1501:00+9з2443100 0.0 1022105
04:00+9юз41049100 0.1 1021324
07:00+10юз6156868 0.1 1020524
10:00+15зюз8124778 0.1 1018745
13:00+21зюз81142100 0.5 10161542
16:00+23з71040100 0.0 10152780
19:00+15юз61282100 1.1 1015333
22:00+16юз61480100 1.1 1014298
16 мая, вс
вс1601:00+14ююз3791100 4.1 1014174
04:00+12зюз38928 0.0 1013152
07:00+14ююз388850 0.0 1013248
10:00+20юз696497 0.0 1010692
13:00+24з8124548 0.0 10091914
16:00+25з6114097 0.0 10072751
19:00+15сз41089100 16.4 1008589
22:00+14сз3893100 0.3 1011357